Location: Gniazdowice
(50.2124°N, 20.2673°E)
Time: 14:29:40
(UTC+00:00)

Cosmos 1703 - Pass Details

Date: 23 May 2024
Orbit: 486 x 499 km, 82.5° (Epoch: 12 June)

Event Time Altitude Azimuth Distance (km) Brightness Sun altitude
Exits shadow 02:00:03 - 221° (SW) 1,898 5.4 -6.0°
Reaches altitude 10° 02:00:34 10° 224° (SW) 1,707 5.1 -6.0°
Maximum altitude 02:03:55 30° 288° (WNW) 913 4.2 -5.6°
Drops below altitude 10° 02:07:17 10° 351° (N) 1,714 6.3 -5.2°
Sets 02:09:35 0° 3° (N) 2,600 7.5 -4.9°
